Retour au catalogue

STARLINK-6163

ActifCommunicationsVLEO
NORAD 57128·PAYLOAD·🇺🇸 United States

Lancé Jun 23, 2023 depuis Cape Canaveral Space Force Station

Loading…

Prochains Passages (prochaines 24 heures)

TLE

FraisSource: CelesTrak SupGP

Époque: Sep 14, 2026, 21:06 UTC

1 57128C 23090AD  26257.87965278 -.00016852  00000+0 -61037-3 0  2571
2 57128  43.0021 292.8120 0001833 270.9831 314.6457 15.27586640    19

Suivez STARLINK-6163 en temps réel avec AllMySat

Download on the App Store